Location: Lombard
(41.8800°N, 88.0080°W)
Time: 03:32:34
(UTC-05:00)

Vanguard 2 Rocket - Pass Details

Date: 22 February 2024
Orbit: 555 x 3307 km, 32.9° (Epoch: 12 April)

Event Time Altitude Azimuth Distance (km) Brightness Sun altitude
Rises 21:29:01 0° 279° (W) 6,741 12.0 -43.2°
Reaches altitude 10° 21:34:14 10° 269° (W) 5,985 11.5 -44.1°
Maximum altitude 21:48:57 28° 220° (SW) 4,873 10.4 -46.3°
Enters shadow 21:53:52 25° 200° (SSW) 4,973 10.4 -47.0°
Drops below altitude 10° 22:03:26 10° 170° (S) 5,817 - -48.4°
Sets 22:08:32 0° 159° (SSE) 6,522 - -49.1°
